Tracking 28799 objects as of 18-Apr-2024
HD Live streaming from Space Station
objects crossing your sky now

VIGORIDE-3

Track VIGORIDE-3 now!
10-day predictions


NORAD ID: 52760
Int'l Code: 2022-057AE
Perigee: 513.4 km
Apogee: 528.2 km
Inclination: 97.6 °
Period: 94.9 minutes
Semi major axis: 6891 km
RCS: Unknown
Launch date: May 25, 2022
Source: United States (US)
Launch site: AIR FORCE EASTERN TEST RANGE (AFETR)
Your satellite tracking list
Your tracking list is empty




NASA's NSSDC Master Catalog

Two Line Element Set (TLE):
1 52760U 22057AE  24108.79566897  .00006873  00000-0  34665-3 0  9999
2 52760  97.5684 227.9900 0010712   8.5165 351.6248 15.17410652104912
Source of the keplerian elements: AFSPC